CSAPA EGGD-EGFF

Flight info

Callsign CSAPA
Flight time 0h 20m
Altitude 1500
Route EGGD DCT CHURCHILL DCT SEDGEMOOR FTHOLM ROUTE EGFF
Aircraft C152/L-V/N

Departure

Time 2026-05-08 13:55
Airport Bristol Airport (EGGD)

Arrival

Time 2026-05-08 14:16
Airport Cardiff International Airport (EGFF)
Time Latitude Longitude Altitude Speed Heading
2026-05-08 13:28 51.37826 -2.70993 625 ft 0 kts 286°
2026-05-08 13:31 51.37826 -2.70994 625 ft 0 kts 286°
2026-05-08 13:36 51.37826 -2.70995 625 ft 0 kts 286°
2026-05-08 13:42 51.37826 -2.70996 625 ft 0 kts 286°
2026-05-08 13:46 51.37830 -2.71019 625 ft 9 kts 288°
2026-05-08 13:47 51.37852 -2.71032 625 ft 4 kts 18°
2026-05-08 13:47 51.37897 -2.71007 625 ft 10 kts 18°
2026-05-08 13:47 51.37953 -2.70983 625 ft 6 kts
2026-05-08 13:47 51.37979 -2.70980 625 ft 0 kts 13°
2026-05-08 13:48 51.38026 -2.70958 625 ft 11 kts 16°
2026-05-08 13:48 51.38087 -2.70932 625 ft 8 kts 358°
2026-05-08 13:48 51.38103 -2.70948 625 ft 2 kts 264°
2026-05-08 13:48 51.38098 -2.71038 625 ft 10 kts 265°
2026-05-08 13:49 51.38107 -2.71130 625 ft 8 kts 290°
2026-05-08 13:49 51.38113 -2.71230 625 ft 13 kts 271°
2026-05-08 13:49 51.38120 -2.71359 625 ft 8 kts 309°
2026-05-08 13:49 51.38150 -2.71382 625 ft 6 kts 339°
2026-05-08 13:50 51.38153 -2.71384 625 ft 0 kts 339°
2026-05-08 13:51 51.38155 -2.71385 625 ft 1 kts 339°
2026-05-08 13:51 51.38181 -2.71401 625 ft 10 kts 339°
2026-05-08 13:51 51.38221 -2.71425 625 ft 9 kts 339°
2026-05-08 13:52 51.38272 -2.71479 625 ft 11 kts 298°
2026-05-08 13:52 51.38276 -2.71631 625 ft 17 kts 266°
2026-05-08 13:52 51.38268 -2.71837 625 ft 20 kts 266°
2026-05-08 13:52 51.38257 -2.72057 625 ft 16 kts 265°
2026-05-08 13:53 51.38248 -2.72218 625 ft 14 kts 265°
2026-05-08 13:53 51.38238 -2.72405 625 ft 19 kts 267°
2026-05-08 13:53 51.38233 -2.72616 625 ft 20 kts 267°
2026-05-08 13:53 51.38223 -2.72840 625 ft 21 kts 266°
2026-05-08 13:54 51.38208 -2.73062 625 ft 14 kts 253°
2026-05-08 13:54 51.38219 -2.73100 625 ft 2 kts 70°
2026-05-08 13:54 51.38224 -2.73045 625 ft 16 kts 83°
2026-05-08 13:54 51.38245 -2.72544 628 ft 69 kts 88°
2026-05-08 13:55 51.38262 -2.71721 799 ft 74 kts 88°
2026-05-08 13:55 51.38277 -2.70903 982 ft 80 kts 88°
2026-05-08 13:55 51.37704 -2.69260 1264 ft 94 kts 153°
2026-05-08 13:56 51.37080 -2.69121 1455 ft 90 kts 190°
2026-05-08 13:56 51.36527 -2.69593 1500 ft 93 kts 223°
2026-05-08 13:56 51.36104 -2.70398 1486 ft 94 kts 233°
2026-05-08 13:56 51.35655 -2.71140 1507 ft 93 kts 219°
2026-05-08 13:57 51.35128 -2.71749 1505 ft 93 kts 215°
2026-05-08 13:57 51.34595 -2.72344 1514 ft 93 kts 214°
2026-05-08 13:57 51.34045 -2.72953 1519 ft 99 kts 214°
2026-05-08 13:57 51.33471 -2.73573 1542 ft 101 kts 213°
2026-05-08 13:58 51.32869 -2.74195 1516 ft 104 kts 213°
2026-05-08 13:58 51.32261 -2.74838 1506 ft 105 kts 214°
2026-05-08 13:58 51.31658 -2.75488 1511 ft 104 kts 214°
2026-05-08 13:58 51.31052 -2.76131 1505 ft 105 kts 213°
2026-05-08 13:59 51.30450 -2.76758 1505 ft 104 kts 213°
2026-05-08 13:59 51.29850 -2.77414 1498 ft 105 kts 215°
2026-05-08 13:59 51.29263 -2.78107 1497 ft 105 kts 217°
2026-05-08 13:59 51.28689 -2.78821 1495 ft 105 kts 218°
2026-05-08 14:00 51.28152 -2.79608 1479 ft 106 kts 227°
2026-05-08 14:00 51.27702 -2.80533 1474 ft 105 kts 236°
2026-05-08 14:00 51.27353 -2.81559 1466 ft 105 kts 246°
2026-05-08 14:00 51.27102 -2.82661 1461 ft 105 kts 253°
2026-05-08 14:01 51.26891 -2.83771 1467 ft 104 kts 253°
2026-05-08 14:01 51.26673 -2.84880 1462 ft 105 kts 252°
2026-05-08 14:01 51.26493 -2.86007 1452 ft 105 kts 259°
2026-05-08 14:01 51.26425 -2.87174 1436 ft 106 kts 271°
2026-05-08 14:02 51.26531 -2.88337 1427 ft 106 kts 284°
2026-05-08 14:02 51.26779 -2.89433 1424 ft 105 kts 294°
2026-05-08 14:02 51.27129 -2.90459 1418 ft 105 kts 302°
2026-05-08 14:02 51.27560 -2.91404 1414 ft 105 kts 308°
2026-05-08 14:03 51.27999 -2.92330 1421 ft 104 kts 306°
2026-05-08 14:03 51.28421 -2.93279 1416 ft 105 kts 305°
2026-05-08 14:03 51.28837 -2.94215 1415 ft 105 kts 305°
2026-05-08 14:03 51.29259 -2.95167 1414 ft 105 kts 305°
2026-05-08 14:04 51.29678 -2.96117 1423 ft 104 kts 306°
2026-05-08 14:04 51.30145 -2.97005 1403 ft 106 kts 313°
2026-05-08 14:04 51.30658 -2.97830 1442 ft 102 kts 315°
2026-05-08 14:04 51.31145 -2.98660 1446 ft 103 kts 311°
2026-05-08 14:05 51.31614 -2.99549 1436 ft 104 kts 309°
2026-05-08 14:05 51.32059 -3.00454 1450 ft 104 kts 310°
2026-05-08 14:05 51.32585 -3.01265 1434 ft 105 kts 317°
2026-05-08 14:05 51.33109 -3.02054 1458 ft 103 kts 317°
2026-05-08 14:06 51.33643 -3.02839 1448 ft 105 kts 316°
2026-05-08 14:06 51.34125 -3.03684 1464 ft 103 kts 309°
2026-05-08 14:06 51.34543 -3.04624 1464 ft 104 kts 303°
2026-05-08 14:06 51.34943 -3.05593 1464 ft 104 kts 303°
2026-05-08 14:07 51.35344 -3.06556 1470 ft 104 kts 303°
2026-05-08 14:07 51.35740 -3.07525 1471 ft 104 kts 302°
2026-05-08 14:07 51.36120 -3.08510 1475 ft 104 kts 301°
2026-05-08 14:07 51.36487 -3.09511 1476 ft 104 kts 300°
2026-05-08 14:08 51.36861 -3.10510 1477 ft 104 kts 301°
2026-05-08 14:08 51.37239 -3.11500 1480 ft 104 kts 301°
2026-05-08 14:08 51.37620 -3.12487 1483 ft 104 kts 301°
2026-05-08 14:08 51.38007 -3.13467 1483 ft 104 kts 303°
2026-05-08 14:09 51.38408 -3.14438 1484 ft 104 kts 303°
2026-05-08 14:09 51.38813 -3.15401 1485 ft 104 kts 304°
2026-05-08 14:09 51.39209 -3.16372 1487 ft 104 kts 300°
2026-05-08 14:09 51.39576 -3.17378 1487 ft 104 kts 300°
2026-05-08 14:10 51.39940 -3.18387 1487 ft 104 kts 300°
2026-05-08 14:10 51.40299 -3.19393 1488 ft 104 kts 299°
2026-05-08 14:10 51.40649 -3.20399 1488 ft 104 kts 298°
2026-05-08 14:10 51.40995 -3.21422 1488 ft 104 kts 298°
2026-05-08 14:11 51.41332 -3.22455 1488 ft 104 kts 297°
2026-05-08 14:11 51.41658 -3.23495 1488 ft 104 kts 296°
2026-05-08 14:11 51.41973 -3.24548 1488 ft 104 kts 295°
2026-05-08 14:11 51.42216 -3.25633 1467 ft 103 kts 276°
2026-05-08 14:12 51.42065 -3.26763 1285 ft 108 kts 242°
2026-05-08 14:12 51.41608 -3.27673 1196 ft 102 kts 224°
2026-05-08 14:12 51.41056 -3.28405 1051 ft 105 kts 215°
2026-05-08 14:12 51.40454 -3.29059 995 ft 103 kts 214°
2026-05-08 14:13 51.40075 -3.29874 1124 ft 88 kts 265°
2026-05-08 14:13 51.40259 -3.30870 1024 ft 99 kts 294°
2026-05-08 14:13 51.40544 -3.31889 977 ft 101 kts 294°
2026-05-08 14:13 51.40827 -3.32906 959 ft 99 kts 295°
2026-05-08 14:14 51.41119 -3.33893 950 ft 98 kts 295°
2026-05-08 14:14 51.41413 -3.34874 943 ft 98 kts 295°
2026-05-08 14:14 51.41545 -3.35926 899 ft 97 kts 262°
2026-05-08 14:14 51.41214 -3.36735 867 ft 81 kts 210°
2026-05-08 14:15 51.40742 -3.37022 708 ft 70 kts 188°
2026-05-08 14:15 51.40342 -3.36667 491 ft 69 kts 114°
2026-05-08 14:15 51.40166 -3.35916 304 ft 70 kts 116°
2026-05-08 14:15 51.39945 -3.35222 225 ft 63 kts 117°
2026-05-08 14:16 51.39780 -3.34712 223 ft 42 kts 117°
2026-05-08 14:16 51.39671 -3.34374 223 ft 27 kts 117°
2026-05-08 14:16 51.39612 -3.34181 223 ft 11 kts 113°
2026-05-08 14:16 51.39589 -3.34104 223 ft 4 kts 116°
2026-05-08 14:17 51.39562 -3.34062 223 ft 8 kts 151°
2026-05-08 14:17 51.39559 -3.34043 223 ft 2 kts
2026-05-08 14:17 51.39588 -3.34114 223 ft 16 kts 297°
2026-05-08 14:17 51.39614 -3.34270 223 ft 14 kts 269°
2026-05-08 14:18 51.39613 -3.34377 223 ft 6 kts 269°
2026-05-08 14:18 51.39612 -3.34429 223 ft 3 kts 266°
2026-05-08 14:18 51.39611 -3.34443 223 ft 0 kts 264°
2026-05-08 14:18 51.39611 -3.34445 223 ft 0 kts 264°
2026-05-08 14:19 51.39610 -3.34468 223 ft 7 kts 264°
2026-05-08 14:19 51.39601 -3.34585 223 ft 12 kts 263°
2026-05-08 14:19 51.39583 -3.34706 223 ft 9 kts 221°
2026-05-08 14:20 51.39517 -3.34710 223 ft 11 kts 172°
2026-05-08 14:20 51.39438 -3.34693 223 ft 12 kts 173°
2026-05-08 14:20 51.39422 -3.34678 223 ft 0 kts 57°
2026-05-08 14:21 51.39422 -3.34677 223 ft 0 kts 57°
2026-05-08 14:21 51.39423 -3.34677 223 ft 0 kts 57°